Hourly Data Report for September 09, 2017

All times are specified in Local Standard Time (LST). Add 1 hour to adjust for Daylight Saving Time where and when it is observed.

QIKIQTARJUAQ A
NUNAVUT

67°32'48.000" N
64°01'54.000" W
5.50 m
2400577
YVM

Download Data

Hourly Data (September 2017)
Hourly Data Report for September 9, 2017
Temp Definition
°C
Dew Point Temp Definition
°C
Rel Hum Definition
%
Wind Dir Definition
10's deg

Wind Spd Definition
km/h
Visibility Definition
km
Stn Press Definition
kPa
Hmdx Definition


Wind Chill Definition


Weather Definition


TIME
00:00 Legend Double Dagger 4.6 -1.5 65 22 13 16.1 99.17     LegendNANA
01:00 Legend Double Dagger 6.8 -1.9 54 16 24 16.1 98.98     LegendNANA
02:00 Legend Double Dagger 7.3 -2.7 49 16 39 16.1 98.65     LegendNANA
03:00 Legend Double Dagger 6.1 -1.5 58 14 45 16.1 98.44     LegendNANA
04:00 Legend Double Dagger 6.7 -0.9 58 15 46 16.1 98.18     LegendNANA
05:00 Legend Double Dagger 7.9 0.8 61 15 34 16.1 98.09     Rain
06:00 Legend Double Dagger 9.6 1.5 57 17 28 16.1 97.97     Rain
07:00 Legend Double Dagger 7.4 2.2 69 16 32 16.1 97.83     Rain
08:00 Legend Double Dagger 8.1 1.8 65 15 35 16.1 97.66     LegendNANA
09:00 Legend Double Dagger 10.3 1.9 56 16 30 16.1 97.61     LegendNANA
10:00 Legend Double Dagger 9.7 3.3 64 16 22 16.1 97.55     LegendNANA
11:00 Legend Double Dagger 5.9 2.8 80 35 28 16.1 97.58     LegendNANA
12:00 Legend Double Dagger 4.9 2.7 86 35 11 16.1 97.53     Rain
13:00 Legend Double Dagger 5.2 2.5 83 34 5 16.1 97.55     LegendNANA
14:00 Legend Double Dagger 4.1 2.3 88 3 13 16.1 97.54     LegendNANA
15:00 Legend Double Dagger 6.3 2.8 78 2 11 16.1 97.59     LegendNANA
16:00 Legend Double Dagger 6.8 3.4 79 6 13 16.1 97.66     LegendNANA
17:00 Legend Double Dagger 6.3 3.5 82 6 18 16.1 97.76     LegendNANA
18:00 Legend Double Dagger 4.6 2.5 86 35 5 16.1 97.91     LegendNANA
19:00 Legend Double Dagger 5.3 3.0 85 4 22 16.1 98.06     LegendNANA
20:00 Legend Double Dagger 4.8 2.5 85 7 8 16.1 98.19     LegendNANA
21:00 Legend Double Dagger 4.5 1.8 83 5 9 16.1 98.29     LegendNANA
22:00 Legend Double Dagger 3.1 0.0 80 7 15 16.1 98.42     LegendNANA
23:00 Legend Double Dagger 2.9 0.0 81 8 9 16.1 98.50     LegendNANA

Notes on Data Quality.

Legend

  • E = Estimated
  • M = Missing
  • NA = Not Available
  • ‡ = Partner data that is not subject to review by the National Climate Archives
Date modified: